Regional Weather Roundup
Issued by NWS

Home | Current Version | Previous Version | Text Only | Print | Product List | Glossary On
Versions: 1 2 3 4 5 6 7 8 9 10 11 12 13 14 15 16 17 18 19 20 21 22 23 24 25 26 27 28 29 30 31 32 33 34 35 36 37 38 39 40 41 42 43 44 45 46 47 48 49 50
000
ASUS43 KDTX 270501
RWRMI
MICHIGAN HOURLY REGIONAL WEATHER ROUNDUP
NATIONAL WEATHER SERVICE DETROIT/PONTIAC MI
1200 AM EST THU NOV 27 2014

NOTE: "FAIR" INDICATES FEW OR NO CLOUDS BELOW 12,000 FEET WITH NO
SIGNIFICANT WEATHER AND/OR OBSTRUCTION TO VISIBILITY.

MIZ047>049-052>055-059>063-066>070-074>076-081>083-270600-
SOUTHEAST LOWER MICHIGAN

CITY           SKY/WX    TMP DP  RH WIND       PRES   REMARKS
ADRIAN         CLOUDY    30  23  75 N7        30.10R WCI  23
ALMA           CLOUDY    28  24  85 CALM      30.13R
ANN ARBOR      CLOUDY    30  23  75 N10       30.09R WCI  21
BAD AXE        CLOUDY    29  28  96 NW6       30.10R WCI  23
CARO           CLOUDY    30  25  80 NW6       30.10S WCI  24
DETROIT CITY   CLOUDY    33  23  66 N7        30.09R WCI  27
DETROIT        FLURRIES  32  24  72 NW7       30.09S WCI  26
FLINT          CLOUDY    30  24  78 NW7       30.11S WCI  23
GROSSE ILE     CLOUDY    32  25  74 NW6       30.07S WCI  26
HILLSDALE      CLOUDY    29  26  88 N6        30.09R WCI  22
HOWELL         CLOUDY    28  24  86 N3        30.09S

CITY           SKY/WX    TMP DP  RH WIND       PRES   REMARKS
JACKSON        CLOUDY    28  22  78 N7        30.10R WCI  21
LAMBERTVILLE   CLOUDY    32  28  86 NW3       30.09S
LANSING        LGT SNOW  28  23  81 N6        30.13R WCI  22
LAPEER         CLOUDY    29  25  84 NW3       30.09S
MASON          CLOUDY    28  24  82 N6        30.11R WCI  22
MONROE         CLOUDY    32  27  80 N5        30.07S WCI  27
MT. CLEMENS    CLOUDY    31  26  82 NW3       30.07R
PONTIAC        FLURRIES  28  22  78 NW9       30.08R WCI  19
PORT HOPE        N/A     31  25  78 W5        30.07S WCI  26
PORT HURON     CLOUDY    30  27  86 NW5       30.09R WCI  25
TRI CITIES     CLOUDY    29  23  78 W3        30.13S
TROY           CLOUDY    32  24  72 NW8       30.10S WCI  25
SAGINAW HB     CLOUDY    30  27  86 W5        30.11S WCI  25
$$
MIZ043>046-050>051-056>058-064>065-071>073-077>080-270600-
SOUTHWEST LOWER MICHIGAN

CITY           SKY/WX    TMP DP  RH WIND       PRES   REMARKS
BATTLE CREEK   CLOUDY    29  21  72 NW5       30.12R WCI  24
BENTON HARBOR  CLOUDY    27  23  85 CALM      30.15S
BIG RAPIDS     CLOUDY    27  27  97 CALM      30.12R
COLDWATER      CLOUDY    30  25  83 N3        30.11S
FREMONT        CLOUDY    27  26  96 CALM      30.14S FOG
HOLLAND        CLOUDY    31  22  69 CALM      30.15R
GRAND RAPIDS   CLOUDY    29  21  72 N3        30.14R
IONIA          CLOUDY    29  23  76 NW3       30.12R
KALAMAZOO      CLOUDY    28  21  75 NW7       30.13S WCI  21
LUDINGTON      CLOUDY    29  28  96 CALM      30.15S FOG
MARSHALL       CLOUDY    27  22  80 CALM      30.11R
MOUNT PLEASANT CLOUDY    29  24  81 CALM      30.11S
MUSKEGON       CLOUDY    29  22  75 CALM      30.15S
SOUTH HAVEN    CLOUDY    29  26  88 CALM      30.15R
$$
MIZ016>042-270600-
NORTHERN LOWER MICHIGAN

CITY           SKY/WX    TMP DP  RH WIND       PRES   REMARKS
ALPENA         LGT SNOW  26  24  92 NW5       30.11R VSB 1   WCI  20
BEAVER ISLAND  CLOUDY    28  22  81 W3        30.13R
BELLAIRE       CLOUDY    27  26  94 CALM      30.13S
CADILLAC       CLOUDY    25  23  92 W5        30.09R WCI  19
CHARLEVOIX     CLOUDY    27  26  95 CALM      30.14S
FRANKFORT      CLOUDY    28  23  83 CALM      30.14S
GAYLORD        CLOUDY    23  20  88 CALM      30.08R
GRAYLING       CLOUDY    26  24  92 W6        30.10R WCI  19
HARBOR SPRINGS CLOUDY    29  24  82 W5        30.11S WCI  24
HOUGHTON LAKE  CLOUDY    24  21  88 NW5       30.10R WCI  18
MANISTEE       CLOUDY    28  27  93 N6        30.15S WCI  22
OSCODA         CLOUDY    26  23  87 NW5       30.09S WCI  21
PELLSTON       MOCLDY    18  18 100 CALM      30.12R
ROGERS CITY    FLURRIES  27  25  91 CALM      30.12R
TRAVERSE CITY  CLOUDY    29  24  82 SW5       30.12S WCI  24
$$
MIZ007>008-015-270600-
EASTERN UPPER MICHIGAN

CITY           SKY/WX    TMP DP  RH WIND       PRES   REMARKS
KINROSS        CLOUDY    25  25 100 CALM      30.11R
MACKINAC ISLAN MOCLDY    28  25  89 CALM      30.10S
NEWBERRY       LGT SNOW  20  20  99 CALM      30.11S
S. S. MARIE    FLURRIES  25  22  88 E3        30.14R
MUNISING         N/A     30  22  72 N16G26    30.15R WCI  19
$$
MIZ004>006-011>014-085-270600-
CENTRAL UPPER MICHIGAN

CITY           SKY/WX    TMP DP  RH WIND       PRES   REMARKS
MANISTIQUE     LGT SNOW  16  15  96 CALM      30.13S
ESCANABA       CLOUDY    21  18  86 NW6       30.14S WCI  14
MENOMINEE      CLOUDY    21  18  86 NW5       30.17R WCI  15
SAWYER-GWINN   LGT SNOW  22  19  89 N16       30.14R VSB 1   WCI   8
$$
MIZ001>003-009>011-084-270600-
WESTERN UPPER MICHIGAN

CITY           SKY/WX    TMP DP  RH WIND       PRES   REMARKS
IRON MOUNTAIN  CLOUDY    21  16  81 NW9       30.15R WCI  11
HOUGHTON       LGT SNOW  14   8  77 N10       30.22R WCI   1
COPPER HARBOR    N/A     19  14  81 NE22G30   30.23R WCI   2
IRONWOOD       CLOUDY    16  14  93 N8        30.23R WCI   5
$$

ABBREVIATIONS USED IN REMARKS
   TC - TEMPERATURE IN CELSIUS
  WCI - WIND CHILL INDEX
   HX - HEAT INDEX
  VSB - VISIBILITY



USA.gov is the U.S. government's official web portal to all federal, state and local government web resources and services.